The following orbital elements are taken from MPC 56169:
Epoch 2006 Jan. 25.0 TT = JDT 2453760.5
T 2006 Feb. 10.7934 TT MPC
q 4.974592 (2000.0) P Q
z -0.000309 Peri. 75.5400 -0.4840112 -0.6056048
+/-0.000001 Node 62.2535 +0.2175626 -0.7824460
e 1.001537 Incl. 45.5377 +0.8475846 -0.1449867
From 250 observations 2003 Dec. 22-2006 Mar. 6, mean residual 0".5.